Content
SEND FEEDBACK

Daily
Averages
Monthly
Summary
Turkmenistan

ASHGABAT, TURKMENISTAN


Home > Asia > Turkmenistan
Elevation: 775 feet     Latitude: 37 58N     Longitude: 058 20E

WEATHER
 
SELECT A DAY
Number of Records: 180,407;   Date Range: 3/15/97 - 9/30/14
 
SHARE

PRINT THIS DATA

[ ← Previous Day ]
WEATHER ALMANAC - AUGUST 21, 2013
[ Next Day → ]
[ °C ]   °F
Weather ElementAverageHighLow
Temperature85.8 °F96.8 °F (4:00 pm)77 °F (8:00 am)
Dewpoint52.4 °F62 °F (2:00 am)46.4 °F (7:00 pm)
Humidity30.4 %43 % (8:00 am)17 % (8:00 pm)
Barometer29.83 in29.89 in (9:30 am)29.76 in (5:00 pm)
Wind Speed7.3 mph11.2 mph (3:30 am)
Weather ElementAverage
Visibility6.1 mi
Wind DirectionWSW (255.9 °)

Weather ElementTotal
Precipitation---
Cooling Degree Days21.9 (Base 65)
Growing Degree Days36.9 (Base 50)
Averaged from 39 records on August 21, 2013
WEATHER CONDITIONS BREAKOUT
WIND DIRECTION BREAKOUT
WEATHER BY HOUR - AUGUST 21, 2013
[ °C ]   °F
Local TimeTemperatureDewpointHumidityBarometerVisibilityWind DirectionWind SpeedGust SpeedPrecipitationEventsConditions
1:00 AM86.0 °F55.4 °F35 %29.83 in6.2 miWest (270°)8.9 mphClear
2:00 AM82.0 °F62.0 °F42 %29.79 in6.0 miWest (270°)8.9 mphScattered Clouds
2:00 AM84.2 °F57.2 °F40 %29.83 in6.2 miWest (270°)8.9 mphClear
3:00 AM82.4 °F51.8 °F35 %29.83 in6.2 miWNW (300°)8.9 mphScattered Clouds
3:30 AM82.4 °F51.8 °F35 %29.83 in6.2 miWNW (290°)11.2 mphScattered Clouds
4:00 AM82.4 °F50.0 °F32 %29.83 in6.2 miWest (280°)11.2 mphMostly Cloudy
4:30 AM82.4 °F50.0 °F32 %29.83 in6.2 miWest (270°)11.2 mphMostly Cloudy
5:00 AM79.0 °F56.0 °F35 %29.82 in6.0 miWSW (250°)6.7 mphPartly Cloudy
5:00 AM80.6 °F50.0 °F34 %29.83 in4.3 miWSW (250°)6.7 mphScattered Clouds
5:30 AM78.8 °F50.0 °F36 %29.83 in6.2 miWest (270°)6.7 mphScattered Clouds
6:00 AM78.8 °F50.0 °F36 %29.86 in6.2 miWest (260°)6.7 mphClear
6:30 AM78.8 °F50.0 °F36 %29.86 in6.2 miWSW (250°)6.7 mphClear
7:00 AM78.8 °F50.0 °F36 %29.86 in6.2 miWest (260°)4.5 mphClear
7:30 AM80.6 °F50.0 °F34 %29.86 in6.2 miWest (270°)4.5 mphClear
8:00 AM77.0 °F59.0 °F43 %29.85 in6.0 miWNW (290°)6.7 mph
8:00 AM80.6 °F51.8 °F37 %29.86 in6.2 miWNW (290°)4.5 mphClear
8:30 AM82.4 °F53.6 °F37 %29.86 in6.2 miNW (320°)6.7 mphClear
9:00 AM82.4 °F53.6 °F37 %29.86 in5.6 miNNW (330°)8.9 mphPartly Cloudy
9:30 AM82.4 °F53.6 °F37 %29.89 in6.2 miNW (310°)6.7 mphPartly Cloudy
10:00 AM84.2 °F53.6 °F35 %29.86 in6.2 miNorth (350°)4.5 mphScattered Clouds
10:30 AM86.0 °F51.8 °F31 %29.86 in6.2 miNorth (350°)4.5 mphPartly Cloudy
11:00 AM87.0 °F57.0 °F26 %29.84 in6.0 miNE (50°)4.5 mphScattered Clouds
11:00 AM87.8 °F51.8 °F29 %29.86 in6.2 miENE (60°)4.5 mphPartly Cloudy
12:00 PM91.4 °F50.0 °F24 %29.83 in6.2 miNE (50°)6.7 mphClear
1:00 PM93.2 °F51.8 °F24 %29.83 in6.2 miNNE (30°)4.5 mph
2:00 PM93.2 °F53.6 °F26 %29.83 in6.2 miWest (270°)4.5 mphClear
2:00 PM91.0 °F58.0 °F24 %29.81 in6.0 miWest (270°)4.5 mph
3:00 PM95.0 °F55.4 °F26 %29.80 in6.2 miWest (280°)6.7 mphClear
4:00 PM96.8 °F53.6 °F23 %29.80 in6.2 miNorth (10°)4.5 mphClear
5:00 PM96.8 °F50.0 °F20 %29.80 in6.2 miNNW (330°)6.7 mphClear
5:00 PM94.0 °F58.0 °F20 %29.76 in6.0 miNNW (330°)6.7 mph
6:00 PM95.0 °F48.2 °F20 %29.80 in6.2 miNW (310°)8.9 mphClear
7:00 PM93.2 °F46.4 °F20 %29.80 in6.2 miWNW (300°)11.2 mphScattered Clouds
8:00 PM91.0 °F52.0 °F17 %29.78 in6.0 miWNW (300°)8.9 mphPartly Cloudy
8:00 PM89.6 °F48.2 °F24 %29.80 in6.2 miWNW (300°)8.9 mphScattered Clouds
9:00 PM87.8 °F48.2 °F25 %29.83 in6.2 miWNW (300°)11.2 mphMostly Cloudy
10:00 PM86.0 °F48.2 °F27 %29.83 in6.2 miWest (270°)8.9 mphScattered Clouds
11:00 PM82.0 °F54.0 °F28 %29.81 in6.0 miWest (260°)8.9 mphScattered Clouds
11:00 PM84.2 °F46.4 °F27 %29.83 in6.2 miWest (260°)8.9 mphPartly Cloudy
Hourly data recorded from UTAA, located miles away from Ashgabat, Turkmenistan







STORIES FROM OUR PARTNERS